Fresno, CA

6:41 PM PDT on July 25, 2016 (GMT -0700)
Fresno Yosemite International

Weather History for KFAT - November, 2012

Change the Weather History Date:

Thursday, November 22, 2012

  Actual Average Record
Temperature  
Mean Temperature 54 °F 52 °F  
Max Temperature 62 °F 62 °F 77 °F (1926)
Min Temperature 46 °F 41 °F 28 °F (1931)
Degree Days  
Heating Degree Days 11    
Month to date heating degree days 139  
Since 1 July heating degree days 177  
Cooling Degree Days 0    
Month to date cooling degree days 11  
Year to date cooling degree days 2644  
Growing Degree Days 4 (Base 50)    
Moisture  
Dew Point 48 °F    
Average Humidity 82    
Maximum Humidity 96    
Minimum Humidity 67    
Precipitation  
Precipitation 0.00 in 0.04 in 0.80 in (1886)
Month to date precipitation 0.38 0.77  
Year to date precipitation 7.21 9.43  
Since 1 July precipitation 0.63  
Snow  
Snow 0.00 in - - ()
Month to date snowfall 0.0  
Since 1 July snowfall 0.0  
Since 1 September snowfall 0.0  
Snow Depth 0.00 in    
Sea Level Pressure  
Sea Level Pressure 30.21 in    
Wind  
Wind Speed 2 mph (NW)    
Max Wind Speed 12 mph    
Max Gust Speed 13 mph    
Visibility 3 miles    
Events Fog    
T = Trace of Precipitation, MM = Missing Value Source: NWS Daily Summary

Daily Weather History Graph

Daily Weather History Graph

Search for Another Location

Airport or City:

Trip Planner

Search our weather history database for the weather conditions in past years. The results will help you decide how hot, cold, wet, or windy it might be!

Date:

Astronomy

Nov. 22, 2012 Rise Set
Actual Time 6:44 AM PST 4:45 PM PST
Civil Twilight 6:16 AM PST 5:13 PM PST
Nautical Twilight 5:45 AM PST 5:45 PM PST
Astronomical Twilight 5:14 AM PST 6:16 PM PST
Moon 1:26 PM PST (11/22) 1:17 AM PST (11/22)
Length of Visible Light 10h 56m
Length of Day
10h 00m
Waxing Gibbous, 72% of the Moon is Illuminated
Nov 22
Waxing Gibbous
Nov 28
Full
Dec 6
Last Quarter
Dec 13
New
Dec 19
First Quarter

Hourly Weather History & Observations

Time (PST) Temp. Windchill Dew Point Humidity Pressure Visibility Wind Dir Wind Speed Gust Speed Precip Events Conditions
12:53 AM 53.1 °F - 48.9 °F 86% 30.16 in 9.0 mi WNW 9.2 mph - N/A   Clear
1:53 AM 52.0 °F - 48.9 °F 89% 30.17 in 10.0 mi NW 5.8 mph - N/A   Clear
2:53 AM 51.1 °F - 48.0 °F 89% 30.17 in 9.0 mi NW 5.8 mph - N/A   Clear
3:53 AM 48.9 °F - 46.0 °F 90% 30.17 in 8.0 mi Calm Calm - N/A   Clear
4:53 AM 48.0 °F - 46.0 °F 93% 30.17 in 7.0 mi Calm Calm - N/A   Scattered Clouds
5:13 AM 46.4 °F 44.3 °F 44.6 °F 93% 30.18 in 1.8 mi NNE 4.6 mph - N/A   Scattered Clouds
5:15 AM 46.4 °F 45.2 °F 44.6 °F 93% 30.18 in 1.2 mi NNE 3.5 mph - N/A   Overcast
5:24 AM 46.4 °F - 44.6 °F 93% 30.18 in 0.5 mi Calm Calm - N/A Fog Fog
5:35 AM 46.4 °F - 44.6 °F 93% 30.19 in 0.5 mi Calm Calm - N/A Fog Fog
5:53 AM 46.0 °F - 44.1 °F 93% 30.19 in 0.5 mi Calm Calm - N/A Fog Fog
6:00 AM 46.4 °F - 44.6 °F 93% 30.19 in 0.5 mi Calm Calm - N/A Fog Fog
6:37 AM 46.4 °F - 44.6 °F 93% 30.20 in 0.1 mi Calm Calm - N/A Fog Fog
6:53 AM 46.9 °F - 45.0 °F 93% 30.21 in 0.1 mi Calm Calm - N/A Fog Fog
7:53 AM 48.0 °F - 46.9 °F 96% 30.23 in 0.1 mi Calm Calm - N/A Fog Fog
8:53 AM 50.0 °F - 48.0 °F 93% 30.25 in 0.1 mi Calm Calm - N/A Fog Fog
9:53 AM 51.1 °F - 48.9 °F 92% 30.25 in 0.1 mi Calm Calm - N/A Fog Fog
10:06 AM 51.8 °F - 48.2 °F 88% 30.26 in 0.5 mi South 3.5 mph - N/A   Overcast
10:22 AM 51.8 °F - 50.0 °F 94% 30.25 in 1.0 mi South 3.5 mph - N/A   Overcast
10:42 AM 51.8 °F - 50.0 °F 94% 30.25 in 1.0 mi South 3.5 mph - N/A   Overcast
10:53 AM 52.0 °F - 50.0 °F 93% 30.25 in 1.5 mi SW 3.5 mph - N/A   Overcast
11:53 AM 54.0 °F - 48.9 °F 83% 30.23 in 1.5 mi WNW 4.6 mph - N/A   Haze
12:02 PM 55.4 °F - 50.0 °F 82% 30.23 in 3.0 mi WNW 6.9 mph - N/A   Haze
12:53 PM 55.9 °F - 50.0 °F 80% 30.20 in 3.0 mi ENE 3.5 mph - N/A   Haze
1:15 PM 57.2 °F - 51.8 °F 82% 30.20 in 3.0 mi Calm Calm - N/A   Haze
1:53 PM 60.1 °F - 50.0 °F 69% 30.19 in 6.0 mi NNW 3.5 mph - N/A   Haze
2:53 PM 61.0 °F - 50.0 °F 67% 30.18 in 9.0 mi WNW 6.9 mph - N/A   Partly Cloudy
3:53 PM 59.0 °F - 48.9 °F 69% 30.19 in 10.0 mi NW 8.1 mph - N/A   Partly Cloudy
4:53 PM 55.9 °F - 48.0 °F 75% 30.19 in 10.0 mi NW 6.9 mph - N/A   Partly Cloudy
5:53 PM 54.0 °F - 48.0 °F 80% 30.20 in 10.0 mi Calm Calm - N/A   Partly Cloudy
6:53 PM 52.0 °F - 48.0 °F 86% 30.21 in 6.0 mi Calm Calm - N/A   Partly Cloudy
7:44 PM 48.2 °F - 46.4 °F 93% 30.23 in 1.8 mi North 4.6 mph - N/A   Scattered Clouds
7:53 PM 48.9 °F - 46.9 °F 93% 30.23 in 0.5 mi Calm Calm - N/A Fog Fog
8:53 PM 48.0 °F - 46.0 °F 93% 30.24 in 0.1 mi Calm Calm - N/A Fog Fog
9:53 PM 48.9 °F - 46.9 °F 93% 30.25 in 0.1 mi Calm Calm - N/A Fog Fog
10:53 PM 48.0 °F - 46.9 °F 96% 30.25 in 0.1 mi Calm Calm - N/A Fog Fog
11:53 PM 46.9 °F - 46.0 °F 97% 30.25 in 0.1 mi Calm Calm - N/A Fog Fog